Location: Diati
(11.8376°N, 2.5966°E)
Time: 17:43:21
(UTC+00:00)

Cosmos 1842 - Pass Details

Date: 21 September 2020
Orbit: 521 x 537 km, 82.5° (Epoch: 19 October)

Event Time Altitude Azimuth Distance (km) Brightness Sun altitude
Rises 18:38:03 0° 356° (N) 2,641 6.9 -13.5°
Reaches altitude 10° 18:40:10 10° 356° (N) 1,755 6.0 -14.1°
Maximum altitude 18:44:01 90° 52° (NE) 528 3.1 -15.0°
Drops below altitude 10° 18:47:54 10° 176° (S) 1,764 5.8 -15.9°
Sets 18:50:03 0° 176° (S) 2,655 6.7 -16.5°
